"startDT [UTC]","vpos","CH4 [ppm]","stdev(CH4) [ppm]","CO2 [ppm]","stdev(CO2) [ppm]","H2O [ppm]","stdev(H2O)","p_LGR [torr]","T_LGR [C]","mt1_LGR [us]","mt2_LGR [us]","T_ECpre [C]","T_EC1 [C]","T_EC2 [C]","p_inlet [hPa]","p_in [hPa]","p_out [hPa]","T_inlet [C]","RH_inlet [%]","dwpt_inlet [C]","T_vent [C]","RH_vent [%]","dwpt_vent [C]","flow_vent [l min-1]","flow_inlet [l min-1]","dwpt_sample [C]","T_room [C]"
2012-03-12 00:00:00,0.0,1.9170,0.0009,401.73,0.36,-1.0,0.0,138.11,28.23,24.60,36.33,0.04,-272.74,-272.73,-50,561,-937,22.5,0.9,-37.6,22.6,0.9,-37.0,5.73,2.38,-33.2,27.5
2012-03-12 00:01:00,0.0,1.9171,0.0008,401.86,0.39,-1.0,0.0,138.12,28.24,24.60,36.33,0.04,-272.73,-272.73,-50,561,-937,22.5,0.9,-37.6,22.6,0.9,-36.9,5.73,2.46,-33.2,27.6
2012-03-12 00:02:00,0.0,1.9169,0.0008,401.83,0.36,-1.0,0.0,138.11,28.25,24.60,36.33,0.04,-272.73,-272.73,-50,562,-938,22.6,0.9,-37.5,22.7,0.9,-37.1,5.73,2.47,-33.1,27.6
2012-03-12 00:03:00,0.0,1.9170,0.0008,401.72,0.42,-1.0,0.0,138.11,28.26,24.61,36.33,0.04,-272.73,-272.74,-50,562,-937,22.6,0.9,-37.8,22.7,0.9,-37.2,5.73,2.38,-33.1,27.7
2012-03-12 00:04:00,0.0,1.9174,0.0011,401.73,0.37,-1.0,0.0,138.11,28.27,24.60,36.33,0.04,-272.73,-272.73,-51,562,-935,22.6,0.8,-38.0,22.7,0.9,-37.4,5.73,2.32,-33.0,27.7
2012-03-12 00:05:00,0.0,1.9169,0.0011,401.76,0.43,-1.0,0.0,138.11,28.28,24.61,36.33,0.04,-272.73,-272.74,-51,559,-939,22.7,0.8,-38.1,22.7,0.9,-37.7,5.73,2.36,-33.0,27.8
2012-03-12 00:06:00,0.0,1.9174,0.0007,401.73,0.49,-1.0,0.0,138.11,28.29,24.60,36.34,0.04,-272.73,-272.73,-51,562,-938,22.7,0.8,-38.2,22.7,0.9,-37.6,5.73,2.46,-33.0,27.8
2012-03-12 00:07:00,0.0,1.9175,0.0009,401.71,0.43,-1.0,0.0,138.11,28.30,24.60,36.33,0.04,-272.73,-272.73,-50,562,-938,22.7,0.8,-38.5,22.8,0.8,-37.9,5.73,2.47,-33.0,27.9
2012-03-12 00:08:00,0.0,1.9178,0.0008,401.72,0.40,-1.0,0.0,138.11,28.31,24.61,36.34,0.04,-272.73,-272.73,-50,563,-937,22.7,0.8,-38.7,22.8,0.8,-38.2,5.73,2.38,-32.9,27.9
2012-03-12 00:09:00,0.0,1.9178,0.0012,401.78,0.44,-1.0,0.0,138.11,28.32,24.61,36.34,0.04,-272.73,-272.73,-52,564,-939,22.7,0.8,-38.8,22.8,0.8,-38.3,5.73,2.31,-32.9,27.8
2012-03-12 00:10:00,0.0,1.9181,0.0008,401.80,0.38,-1.0,0.0,138.11,28.33,24.60,36.34,0.04,-272.73,-272.73,-51,563,-938,22.7,0.8,-38.9,22.8,0.8,-38.3,5.73,2.37,-32.9,27.8
2012-03-12 00:11:00,0.0,1.9175,0.0008,401.77,0.39,-1.0,0.0,138.11,28.34,24.61,36.33,0.04,-272.73,-272.74,-51,563,-938,22.7,0.7,-39.0,22.8,0.8,-38.5,5.73,2.48,-32.9,27.8
2012-03-12 00:12:00,0.0,1.9178,0.0008,401.74,0.35,-1.0,0.0,138.11,28.35,24.61,36.34,0.04,-272.73,-272.74,-51,563,-938,22.8,0.7,-39.3,22.9,0.8,-38.7,5.73,2.46,-32.9,27.9
2012-03-12 00:13:00,0.0,1.9174,0.0009,401.76,0.42,-1.0,0.0,138.11,28.36,24.61,36.34,0.04,-272.73,-272.73,-50,563,-938,22.8,0.7,-39.4,22.9,0.8,-38.8,5.73,2.35,-32.8,27.9
2012-03-12 00:14:00,0.0,1.9175,0.0009,401.71,0.42,-1.0,0.0,138.11,28.37,24.61,36.34,0.04,-272.73,-272.74,-50,563,-938,22.8,0.7,-39.5,22.9,0.8,-38.8,5.73,2.32,-32.8,28.0
2012-03-12 00:15:00,0.0,1.9174,0.0009,401.79,0.37,-1.0,0.0,138.11,28.38,24.61,36.34,0.04,-272.73,-272.73,-50,564,-938,22.8,0.7,-39.4,22.9,0.8,-38.7,5.73,2.39,-32.8,27.8
2012-03-12 00:16:00,0.0,1.9168,0.0009,401.74,0.44,-1.0,0.0,138.11,28.39,24.61,36.34,0.04,-272.73,-272.73,-51,564,-938,22.8,0.7,-39.5,22.9,0.8,-38.9,5.73,2.38,-32.9,27.3
2012-03-12 00:17:00,0.0,1.9166,0.0008,401.79,0.34,-1.0,0.0,138.12,28.38,24.61,36.34,0.04,-272.73,-272.74,-51,564,-939,22.8,0.7,-39.4,22.8,0.8,-38.7,5.73,2.41,-33.1,26.8
2012-03-12 00:18:00,0.0,1.9168,0.0009,401.82,0.34,-1.0,0.0,138.12,28.38,24.61,36.34,0.04,-272.73,-272.74,-51,564,-939,22.7,0.7,-39.6,22.7,0.8,-38.9,5.73,2.50,-33.3,26.5
2012-03-12 00:19:00,0.0,1.9168,0.0009,401.83,0.41,-1.0,0.0,138.13,28.36,24.61,36.33,0.04,-272.73,-272.73,-50,564,-939,22.6,0.7,-39.6,22.7,0.8,-38.9,5.73,2.50,-33.6,26.0
2012-03-12 00:20:00,0.0,1.9168,0.0011,401.83,0.38,-1.0,0.0,138.14,28.34,24.61,36.33,0.04,-272.73,-272.73,-51,564,-939,22.6,0.7,-39.6,22.6,0.8,-38.9,5.73,2.40,-33.7,25.9
2012-03-12 00:21:00,0.0,1.9164,0.0009,401.43,0.40,-1.0,0.0,138.14,28.32,24.61,36.34,0.04,-272.74,-272.73,-52,563,-938,22.5,0.7,-39.5,22.5,0.8,-38.9,5.73,2.29,-34.0,25.6
2012-03-12 00:22:00,0.0,1.9161,0.0011,401.43,0.38,-1.0,0.0,138.15,28.29,24.61,36.33,0.04,-272.73,-272.73,-51,563,-938,22.4,0.7,-39.3,22.4,0.8,-39.0,5.73,2.32,-34.1,25.4
2012-03-12 00:23:00,0.0,1.9154,0.0012,401.28,0.35,-1.0,0.0,138.15,28.26,24.61,36.34,0.04,-272.73,-272.73,-51,563,-938,22.3,0.7,-39.4,22.3,0.8,-39.1,5.73,2.49,-34.3,25.2
2012-03-12 00:24:00,0.0,1.9145,0.0009,401.12,0.38,-1.0,0.0,138.16,28.23,24.61,36.35,0.04,-272.73,-272.73,-52,561,-940,22.2,0.7,-39.4,22.2,0.8,-38.8,5.73,2.45,-34.4,25.5
2012-03-12 00:25:00,0.0,1.9149,0.0010,401.14,0.47,-1.0,0.0,138.16,28.20,24.60,36.34,0.04,-272.73,-272.74,-51,561,-938,22.2,0.8,-39.2,22.2,0.8,-38.7,5.73,2.36,-34.4,25.9
2012-03-12 00:26:00,0.0,1.9150,0.0009,401.25,0.40,-1.0,0.0,138.15,28.17,24.61,36.33,0.04,-272.73,-272.73,-52,561,-937,22.3,0.8,-38.9,22.2,0.8,-38.7,5.73,2.36,-34.3,26.2
2012-03-12 00:27:00,0.0,1.9152,0.0010,401.15,0.37,-1.0,0.0,138.15,28.16,24.61,36.34,0.04,-272.73,-272.74,-51,561,-938,22.3,0.8,-39.0,22.2,0.8,-38.7,5.73,2.49,-34.3,26.4
2012-03-12 00:28:00,0.0,1.9157,0.0011,401.20,0.43,-1.0,0.0,138.14,28.15,24.60,36.33,0.04,-272.73,-272.74,-51,561,-938,22.3,0.8,-39.0,22.3,0.8,-38.7,5.73,2.44,-34.2,26.6
2012-03-12 00:29:00,0.0,1.9152,0.0011,401.20,0.38,-1.0,0.0,138.14,28.15,24.60,36.33,0.04,-272.73,-272.73,-51,561,-938,22.3,0.8,-39.0,22.3,0.8,-38.6,5.73,2.28,-34.1,26.7
2012-03-12 00:30:00,0.0,1.9153,0.0011,401.34,0.41,-1.0,0.0,138.14,28.14,24.60,36.34,0.04,-272.74,-272.73,-51,561,-938,22.3,0.8,-39.0,22.3,0.8,-38.6,5.73,2.48,-34.0,26.8
2012-03-12 00:31:00,0.0,1.9159,0.0010,401.31,0.38,-1.0,0.0,138.13,28.14,24.60,36.34,0.04,-272.73,-272.73,-51,561,-938,22.3,0.8,-38.9,22.3,0.8,-38.4,5.73,2.43,-34.0,26.8
2012-03-12 00:32:00,0.0,1.9161,0.0008,401.64,0.39,-1.0,0.0,138.13,28.14,24.60,36.33,0.04,-272.74,-272.73,-50,561,-937,22.3,0.8,-39.0,22.4,0.8,-38.3,5.73,2.30,-33.9,26.9
2012-03-12 00:33:00,0.0,1.9157,0.0010,401.59,0.36,-1.0,0.0,138.13,28.15,24.60,36.33,0.04,-272.73,-272.73,-51,561,-937,22.3,0.8,-39.0,22.4,0.8,-38.3,5.73,2.50,-33.8,27.0
2012-03-12 00:34:00,0.0,1.9157,0.0010,401.62,0.40,-1.0,0.0,138.13,28.16,24.60,36.33,0.04,-272.73,-272.73,-51,561,-937,22.3,0.8,-39.0,22.4,0.8,-38.5,5.73,2.39,-33.8,27.0
2012-03-12 00:35:00,0.0,1.9162,0.0010,401.76,0.40,-1.0,0.0,138.13,28.16,24.60,36.32,0.04,-272.73,-272.73,-51,561,-937,22.3,0.8,-39.0,22.4,0.8,-38.6,5.73,2.31,-33.7,27.1
2012-03-12 00:36:00,0.0,1.9160,0.0009,401.72,0.40,-1.0,0.0,138.13,28.17,24.60,36.33,0.04,-272.73,-272.73,-50,561,-937,22.3,0.8,-39.0,22.4,0.8,-38.6,5.73,2.47,-33.6,27.1
2012-03-12 00:37:00,0.0,1.9159,0.0010,401.72,0.40,-1.0,0.0,138.12,28.17,24.61,36.33,0.04,-272.73,-272.73,-50,561,-938,22.4,0.8,-39.0,22.5,0.8,-38.5,5.73,2.47,-33.6,27.2
2012-03-12 00:38:00,0.0,1.9159,0.0009,401.69,0.40,-1.0,0.0,138.12,28.18,24.60,36.33,0.04,-272.73,-272.73,-51,561,-937,22.4,0.8,-38.9,22.5,0.8,-38.5,5.73,2.34,-33.5,27.2
2012-03-12 00:39:00,0.0,1.9163,0.0009,401.79,0.35,-1.0,0.0,138.12,28.19,24.60,36.33,0.04,-272.73,-272.73,-51,561,-937,22.4,0.7,-39.2,22.5,0.8,-38.6,5.73,2.33,-33.5,27.3
2012-03-12 00:40:00,0.0,1.9163,0.0009,401.80,0.49,-1.0,0.0,138.12,28.20,24.60,36.33,0.04,-272.73,-272.73,-51,561,-937,22.4,0.7,-39.3,22.5,0.8,-38.5,5.73,2.43,-33.5,27.3
2012-03-12 00:41:00,0.0,1.9160,0.0009,401.76,0.41,-1.0,0.0,138.12,28.21,24.61,36.33,0.04,-272.73,-272.73,-50,561,-937,22.4,0.7,-39.2,22.5,0.8,-38.8,5.73,2.49,-33.4,27.4
2012-03-12 00:42:00,0.0,1.9163,0.0009,401.72,0.39,-1.0,0.0,138.12,28.22,24.60,36.34,0.04,-272.73,-272.73,-50,561,-937,22.4,0.7,-39.2,22.6,0.8,-38.9,5.73,2.42,-33.4,27.4
2012-03-12 00:43:00,0.0,1.9165,0.0009,401.75,0.40,-1.0,0.0,138.12,28.23,24.60,36.33,0.04,-272.73,-272.74,-50,561,-937,22.5,0.7,-39.2,22.6,0.8,-38.7,5.73,2.32,-33.3,27.5
2012-03-12 00:44:00,0.0,1.9164,0.0009,401.66,0.42,-1.0,0.0,138.12,28.24,24.60,36.34,0.04,-272.73,-272.74,-50,561,-937,22.5,0.7,-39.2,22.6,0.8,-38.5,5.73,2.35,-33.3,27.6
2012-03-12 00:45:00,0.0,1.9160,0.0010,401.66,0.39,-1.0,0.0,138.11,28.25,24.61,36.34,0.04,-272.73,-272.73,-51,562,-937,22.5,0.7,-39.2,22.6,0.8,-38.5,5.73,2.46,-33.3,27.6
2012-03-12 00:46:00,0.0,1.9167,0.0009,401.77,0.46,-1.0,0.0,138.11,28.26,24.60,36.33,0.04,-272.73,-272.73,-50,561,-937,22.6,0.8,-38.9,22.7,0.8,-38.4,5.73,2.48,-33.2,27.6
2012-03-12 00:47:00,0.0,1.9167,0.0010,401.78,0.40,-1.0,0.0,138.11,28.27,24.60,36.34,0.04,-272.73,-272.73,-48,563,-937,22.6,0.8,-38.8,22.7,0.8,-38.5,5.73,2.37,-33.2,27.7
2012-03-12 00:48:00,0.0,1.9164,0.0010,401.87,0.43,-1.0,0.0,138.11,28.28,24.61,36.33,0.04,-272.73,-272.73,-50,562,-937,22.6,0.8,-38.9,22.7,0.8,-38.5,5.73,2.31,-33.2,27.8
2012-03-12 00:49:00,0.0,1.9164,0.0010,401.81,0.37,-1.0,0.0,138.11,28.29,24.61,36.34,0.04,-272.74,-272.73,-50,562,-937,22.6,0.8,-38.9,22.7,0.8,-38.4,5.73,2.40,-33.1,27.8
2012-03-12 00:50:00,0.0,1.9167,0.0008,401.73,0.39,-1.0,0.0,138.11,28.30,24.60,36.34,0.04,-272.73,-272.73,-50,562,-937,22.7,0.8,-38.8,22.8,0.8,-38.5,5.73,2.49,-33.1,27.8
2012-03-12 00:51:00,0.0,1.9164,0.0009,401.70,0.29,-1.0,0.0,138.11,28.31,24.61,36.34,0.04,-272.73,-272.74,-50,562,-938,22.7,0.8,-38.8,22.8,0.8,-38.4,5.73,2.43,-33.1,27.9
2012-03-12 00:52:00,0.0,1.9166,0.0008,401.82,0.42,-1.0,0.0,138.11,28.32,24.61,36.34,0.04,-272.73,-272.74,-50,563,-938,22.7,0.8,-38.7,22.8,0.8,-38.5,5.73,2.32,-33.1,28.0
2012-03-12 00:53:00,0.0,1.9168,0.0010,401.73,0.44,-1.0,0.0,138.11,28.33,24.60,36.34,0.04,-272.73,-272.73,-50,563,-938,22.7,0.8,-38.8,22.8,0.8,-38.4,5.73,2.35,-33.0,28.0
2012-03-12 00:54:00,0.0,1.9170,0.0008,401.81,0.41,-1.0,0.0,138.11,28.34,24.60,36.33,0.04,-272.73,-272.73,-50,563,-937,22.8,0.8,-38.7,22.9,0.8,-38.5,5.73,2.46,-33.0,28.1
2012-03-12 00:55:00,0.0,1.9164,0.0009,401.87,0.33,-1.0,0.0,138.11,28.35,24.61,36.34,0.04,-272.73,-272.73,-50,563,-938,22.8,0.8,-38.8,22.9,0.8,-38.5,5.73,2.47,-33.0,28.1
2012-03-12 00:56:00,0.0,1.9167,0.0008,401.72,0.33,-1.0,0.0,138.11,28.36,24.61,36.34,0.04,-272.73,-272.73,-50,563,-938,22.8,0.8,-38.7,22.9,0.8,-38.3,5.73,2.35,-32.9,28.1
2012-03-12 00:57:00,0.0,1.9166,0.0010,401.71,0.37,-1.0,0.0,138.11,28.37,24.61,36.34,0.04,-272.73,-272.73,-51,563,-938,22.9,0.8,-38.7,22.9,0.8,-38.3,5.73,2.34,-33.0,27.7
2012-03-12 00:58:00,0.0,1.9165,0.0008,401.87,0.38,-1.0,0.0,138.11,28.38,24.61,36.34,0.04,-272.73,-272.73,-50,564,-938,22.9,0.8,-38.7,22.9,0.8,-38.4,5.73,2.42,-33.1,27.1
2012-03-12 00:59:00,0.0,1.9161,0.0009,401.77,0.46,-1.0,0.0,138.12,28.37,24.61,36.34,0.04,-272.73,-272.73,-51,564,-938,22.8,0.8,-38.7,22.8,0.8,-38.4,5.73,2.48,-33.3,26.7
2012-03-12 01:00:00,0.0,1.9164,0.0011,401.90,0.41,-1.0,0.0,138.13,28.37,24.61,36.34,0.04,-272.73,-272.73,-51,564,-939,22.7,0.8,-38.8,22.8,0.8,-38.5,5.73,2.45,-33.5,26.4
2012-03-12 01:01:00,0.0,1.9165,0.0009,401.84,0.42,-1.0,0.0,138.13,28.35,24.61,36.34,0.04,-272.73,-272.73,-51,564,-939,22.7,0.8,-38.6,22.7,0.8,-38.1,5.73,2.36,-33.7,26.0
2012-03-12 01:02:00,0.0,1.9164,0.0009,401.81,0.44,-1.0,0.0,138.14,28.33,24.61,36.34,0.04,-272.74,-272.73,-51,563,-939,22.6,0.8,-38.5,22.6,0.8,-38.1,5.73,2.31,-33.9,25.9
2012-03-12 01:03:00,0.0,1.9159,0.0009,401.59,0.41,-1.0,0.0,138.15,28.31,24.61,36.34,0.04,-272.73,-272.73,-51,563,-938,22.5,0.8,-38.9,22.5,0.8,-38.3,5.73,2.34,-34.1,25.6
2012-03-12 01:04:00,0.0,1.9154,0.0010,401.36,0.42,-1.0,0.0,138.15,28.28,24.61,36.34,0.04,-272.73,-272.73,-51,563,-938,22.5,0.8,-38.7,22.4,0.8,-38.3,5.73,2.45,-34.3,25.4
2012-03-12 01:05:00,0.0,1.9148,0.0012,401.33,0.41,-1.0,0.0,138.16,28.25,24.60,36.33,0.04,-272.73,-272.74,-52,563,-939,22.4,0.8,-38.5,22.4,0.8,-38.1,5.73,2.52,-34.4,25.3
2012-03-12 01:06:00,0.0,1.9142,0.0009,401.33,0.36,-1.0,0.0,138.16,28.22,24.60,36.33,0.04,-272.74,-272.73,-51,562,-938,22.3,0.8,-38.6,22.3,0.8,-38.1,5.73,2.40,-34.5,25.6
2012-03-12 01:07:00,0.0,1.9145,0.0008,401.30,0.40,-1.0,0.0,138.16,28.19,24.60,36.34,0.04,-272.73,-272.72,-51,562,-938,22.3,0.8,-38.3,22.3,0.9,-37.9,5.73,2.34,-34.5,26.0
2012-03-12 01:08:00,0.0,1.9142,0.0008,401.31,0.41,-1.0,0.0,138.15,28.17,24.60,36.32,0.04,-272.74,-272.73,-52,561,-937,22.3,0.8,-38.1,22.3,0.9,-37.6,5.73,2.34,-34.4,26.2
2012-03-12 01:09:00,0.0,1.9147,0.0009,401.29,0.40,-1.0,0.0,138.15,28.16,24.60,36.33,0.04,-272.74,-272.74,-51,562,-938,22.3,0.9,-37.7,22.3,0.9,-37.2,5.73,2.48,-34.4,26.4
2012-03-12 01:10:00,0.0,1.9157,0.0010,401.52,0.44,-1.0,0.0,138.14,28.15,24.60,36.33,0.04,-272.73,-272.73,-51,561,-938,22.3,0.9,-37.6,22.3,0.9,-37.1,5.73,2.45,-34.3,26.6
2012-03-12 01:11:00,0.0,1.9154,0.0010,401.37,0.45,-1.0,0.0,138.14,28.15,24.60,36.33,0.04,-272.73,-272.73,-51,562,-938,22.3,0.9,-37.9,22.3,0.9,-37.7,5.73,2.28,-34.2,26.7
2012-03-12 01:12:00,0.0,1.9157,0.0011,401.47,0.39,-1.0,0.0,138.14,28.14,24.60,36.33,0.04,-272.73,-272.73,-51,562,-938,22.3,0.8,-38.0,22.4,0.9,-37.7,5.73,2.46,-34.1,26.8
2012-03-12 01:13:00,0.0,1.9159,0.0009,401.59,0.37,-1.0,0.0,138.13,28.15,24.60,36.33,0.04,-272.73,-272.74,-51,561,-937,22.3,0.9,-37.9,22.4,0.9,-37.6,5.73,2.45,-34.0,26.9
2012-03-12 01:14:00,0.0,1.9162,0.0007,401.55,0.41,-1.0,0.0,138.13,28.15,24.60,36.33,0.04,-272.73,-272.73,-51,561,-937,22.3,0.8,-38.0,22.4,0.9,-37.6,5.73,2.29,-34.0,27.0
2012-03-12 01:15:00,0.0,1.9162,0.0011,401.79,0.45,-1.0,0.0,138.13,28.16,24.60,36.33,0.04,-272.73,-272.73,-51,561,-937,22.3,0.9,-37.9,22.4,0.9,-37.7,5.73,2.44,-33.9,27.0
2012-03-12 01:16:00,0.0,1.9167,0.0010,401.63,0.33,-1.0,0.0,138.13,28.16,24.60,36.33,0.04,-272.73,-272.74,-50,561,-937,22.3,0.9,-37.9,22.4,0.9,-37.6,5.73,2.48,-33.8,27.1
2012-03-12 01:17:00,0.0,1.9172,0.0010,401.89,0.37,-1.0,0.0,138.13,28.17,24.60,36.33,0.04,-272.73,-272.73,-51,561,-938,22.4,0.9,-37.9,22.5,0.9,-37.6,5.73,2.31,-33.8,27.1
2012-03-12 01:18:00,0.0,1.9162,0.0008,401.75,0.45,-1.0,0.0,138.12,28.18,24.61,36.33,0.04,-272.73,-272.73,-51,561,-937,22.4,0.9,-37.9,22.5,0.9,-37.3,5.73,2.36,-33.7,27.2
2012-03-12 01:19:00,0.0,1.9159,0.0009,401.74,0.40,-1.0,0.0,138.12,28.19,24.60,36.33,0.04,-272.73,-272.73,-51,561,-937,22.4,0.9,-37.9,22.5,0.9,-37.3,5.73,2.49,-33.7,27.3
2012-03-12 01:20:00,0.0,1.9162,0.0010,401.84,0.49,-1.0,0.0,138.12,28.20,24.60,36.33,0.04,-272.73,-272.73,-51,561,-937,22.4,0.9,-37.6,22.5,0.9,-37.2,5.73,2.44,-33.6,27.3
2012-03-12 01:21:00,0.0,1.9166,0.0010,401.79,0.41,-1.0,0.0,138.12,28.21,24.60,36.33,0.04,-272.72,-272.74,-50,561,-937,22.4,0.9,-37.6,22.5,0.9,-37.3,5.73,2.32,-33.6,27.4
2012-03-12 01:22:00,0.0,1.9163,0.0008,401.80,0.42,-1.0,0.0,138.12,28.22,24.60,36.33,0.04,-272.74,-272.74,-50,561,-937,22.5,0.9,-37.6,22.6,0.9,-37.2,5.73,2.34,-33.5,27.4
2012-03-12 01:23:00,0.0,1.9164,0.0009,401.84,0.41,-1.0,0.0,138.12,28.23,24.60,36.33,0.04,-272.73,-272.74,-51,561,-937,22.5,0.9,-37.6,22.6,0.9,-37.2,5.73,2.45,-33.5,27.5
2012-03-12 01:24:00,0.0,1.9163,0.0010,401.90,0.42,-1.0,0.0,138.12,28.24,24.61,36.33,0.04,-272.73,-272.73,-51,562,-938,22.5,0.9,-37.5,22.6,0.9,-37.2,5.73,2.48,-33.4,27.6
2012-03-12 01:25:00,0.0,1.9170,0.0008,401.77,0.39,-1.0,0.0,138.12,28.25,24.60,36.33,0.04,-272.73,-272.73,-51,562,-938,22.5,0.9,-37.5,22.7,0.9,-37.2,5.73,2.39,-33.4,27.6
2012-03-12 01:26:00,0.0,1.9167,0.0009,401.81,0.42,-1.0,0.0,138.11,28.25,24.61,36.33,0.04,-272.74,-272.73,-51,562,-937,22.6,0.9,-37.5,22.7,0.9,-37.2,5.73,2.31,-33.4,27.6
2012-03-12 01:27:00,0.0,1.9169,0.0008,401.74,0.34,-1.0,0.0,138.11,28.26,24.60,36.33,0.04,-272.73,-272.74,-49,562,-939,22.6,0.9,-37.5,22.7,0.9,-36.9,5.73,2.37,-33.3,27.7
2012-03-12 01:28:00,0.0,1.9167,0.0010,401.75,0.44,-1.0,0.0,138.11,28.28,24.60,36.34,0.04,-272.74,-272.73,-51,561,-937,22.6,0.9,-37.5,22.7,0.9,-36.9,5.73,2.47,-33.2,27.8
2012-03-12 01:29:00,0.0,1.9169,0.0012,401.83,0.45,-1.0,0.0,138.11,28.29,24.61,36.33,0.04,-272.73,-272.73,-50,562,-938,22.7,0.9,-37.5,22.8,0.9,-36.9,5.73,2.45,-33.2,27.9
2012-03-12 01:30:00,0.0,1.9169,0.0009,401.75,0.37,-1.0,0.0,138.11,28.30,24.60,36.34,0.04,-272.73,-272.73,-51,562,-937,22.7,0.9,-37.2,22.8,0.9,-36.8,5.73,2.33,-33.1,27.9
2012-03-12 01:31:00,0.0,1.9171,0.0009,401.86,0.43,-1.0,0.0,138.11,28.31,24.60,36.33,0.04,-272.73,-272.72,-50,563,-939,22.7,1.1,-35.3,22.8,1.1,-35.0,5.73,2.33,-33.1,28.0
2012-03-12 01:32:00,0.0,1.9168,0.0009,401.76,0.39,-1.0,0.0,138.11,28.32,24.61,36.34,0.04,-272.73,-272.73,-51,564,-937,22.7,1.0,-36.3,22.9,1.0,-35.8,5.73,2.47,-33.1,28.0
2012-03-12 01:33:00,0.0,1.9170,0.0008,401.75,0.39,-0.8,1.4,138.11,28.33,24.61,36.34,0.04,-272.73,-272.74,-50,563,-938,22.8,0.9,-36.8,22.9,1.0,-36.2,5.73,2.45,-33.0,28.1
2012-03-12 01:34:00,0.0,1.9168,0.0009,401.86,0.43,-1.0,0.0,138.11,28.34,24.61,36.34,0.04,-272.73,-272.72,-51,563,-938,22.8,0.9,-36.8,22.9,1.0,-36.2,5.73,2.30,-33.0,28.1
2012-03-12 01:35:00,0.0,1.9176,0.0009,401.79,0.44,-1.0,0.0,138.11,28.36,24.60,36.33,0.04,-272.73,-272.74,-51,563,-938,22.9,0.9,-36.8,22.9,1.0,-36.2,5.73,2.37,-33.0,28.2
2012-03-12 01:36:00,0.0,1.9173,0.0008,401.80,0.37,-0.6,3.2,138.11,28.37,24.61,36.34,0.04,-272.73,-272.74,-51,563,-938,22.9,0.9,-36.8,22.9,1.0,-36.2,5.73,2.48,-32.9,27.8
2012-03-12 01:37:00,0.0,1.9172,0.0009,401.82,0.36,-1.0,0.0,138.11,28.37,24.61,36.34,0.04,-272.73,-272.73,-51,564,-938,22.9,1.0,-36.5,22.9,1.0,-36.1,5.73,2.42,-33.1,27.2
2012-03-12 01:38:00,0.0,1.9171,0.0010,401.80,0.44,-1.0,0.0,138.12,28.37,24.61,36.34,0.04,-272.73,-272.73,-51,564,-938,22.9,1.0,-36.5,22.9,1.0,-35.9,5.73,2.37,-33.3,26.8
2012-03-12 01:39:00,0.0,1.9167,0.0009,401.84,0.39,-1.0,0.0,138.12,28.37,24.61,36.34,0.04,-272.73,-272.73,-51,564,-939,22.8,1.0,-36.3,22.8,1.0,-35.9,5.73,2.33,-33.4,26.4
2012-03-12 01:40:00,0.0,1.9170,0.0010,401.93,0.41,-1.0,0.0,138.13,28.36,24.61,36.33,0.04,-272.73,-272.73,-51,564,-939,22.7,1.0,-36.3,22.8,1.0,-35.8,5.73,2.36,-33.6,26.2
2012-03-12 01:41:00,0.0,1.9176,0.0011,401.81,0.37,-1.0,0.0,138.14,28.34,24.60,36.33,0.04,-272.73,-272.73,-52,564,-939,22.7,1.0,-36.1,22.7,1.0,-35.9,5.73,2.44,-33.8,26.0
2012-03-12 01:42:00,0.0,1.9171,0.0010,401.72,0.43,-1.0,0.0,138.14,28.32,24.61,36.33,0.04,-272.73,-272.73,-52,563,-939,22.6,1.0,-36.1,22.6,1.0,-35.8,5.73,2.48,-33.9,25.7
2012-03-12 01:43:00,0.0,1.9168,0.0009,401.50,0.37,-1.0,0.0,138.15,28.29,24.61,36.34,0.04,-272.73,-272.73,-51,563,-938,22.6,1.0,-36.1,22.5,1.1,-35.6,5.73,2.47,-34.1,25.6
2012-03-12 01:44:00,0.0,1.9176,0.0011,401.55,0.42,-1.0,0.0,138.15,28.26,24.60,36.33,0.04,-272.73,-272.74,-51,563,-938,22.5,1.0,-36.1,22.4,1.1,-35.6,5.73,2.43,-34.2,25.4
2012-03-12 01:45:00,0.0,1.9162,0.0013,401.62,0.38,-1.0,0.0,138.16,28.23,24.61,36.32,0.04,-272.73,-272.74,-51,564,-939,22.4,1.0,-36.0,22.4,1.1,-35.7,5.73,2.37,-34.4,25.6
2012-03-12 01:46:00,0.0,1.9155,0.0008,401.39,0.34,-1.0,0.0,138.15,28.20,24.60,36.33,0.04,-272.73,-272.73,-52,562,-938,22.4,1.0,-35.9,22.3,1.1,-35.7,5.73,2.40,-34.4,26.0
2012-03-12 01:47:00,0.0,1.9155,0.0010,401.43,0.39,-1.0,0.0,138.15,28.18,24.60,36.33,0.04,-272.73,-272.73,-52,562,-938,22.4,1.0,-35.9,22.3,1.1,-35.6,5.73,2.31,-34.3,26.3
2012-03-12 01:48:00,0.0,1.9151,0.0009,401.29,0.44,-1.0,0.0,138.15,28.17,24.61,36.33,0.04,-272.73,-272.73,-51,562,-939,22.4,1.0,-35.9,22.4,1.1,-35.7,5.73,2.38,-34.2,26.5
2012-03-12 01:49:00,0.0,1.9154,0.0007,401.39,0.36,-1.0,0.0,138.14,28.16,24.61,36.33,0.04,-272.73,-272.73,-51,561,-937,22.4,1.0,-35.9,22.4,1.1,-35.7,5.73,2.51,-34.1,26.7
2012-03-12 01:50:00,0.0,1.9157,0.0008,401.49,0.37,-1.0,0.0,138.14,28.15,24.60,36.33,0.04,-272.73,-272.73,-52,561,-938,22.5,1.0,-36.1,22.4,1.1,-35.6,5.73,2.30,-34.0,26.8
2012-03-12 01:51:00,0.0,1.9162,0.0009,401.53,0.45,-1.0,0.0,138.13,28.15,24.60,36.33,0.04,-272.73,-272.72,-52,562,-938,22.5,1.0,-36.1,22.5,1.1,-35.7,5.73,2.43,-33.9,26.9
2012-03-12 01:52:00,0.0,1.9164,0.0010,401.65,0.41,-1.0,0.0,138.13,28.16,24.60,36.33,0.04,-272.74,-272.74,-51,562,-937,22.5,1.1,-35.7,22.5,1.1,-35.5,5.73,2.46,-33.8,27.0
2012-03-12 01:53:00,0.0,1.9164,0.0009,401.77,0.41,-1.0,0.0,138.13,28.16,24.60,36.33,0.04,-272.73,-272.73,-51,561,-938,22.5,1.1,-35.7,22.5,1.1,-35.2,5.73,2.29,-33.8,27.1
2012-03-12 01:54:00,0.0,1.9172,0.0009,401.76,0.42,-1.0,0.0,138.13,28.17,24.61,36.33,0.04,-272.73,-272.72,-52,561,-937,22.5,1.1,-35.6,22.5,1.1,-35.1,5.73,2.44,-33.7,27.2
2012-03-12 01:55:00,0.0,1.9174,0.0010,401.76,0.38,-1.0,0.0,138.12,28.18,24.60,36.33,0.04,-272.74,-272.73,-51,561,-938,22.5,1.1,-35.7,22.5,1.1,-35.3,5.73,2.48,-33.6,27.2
2012-03-12 01:56:00,0.0,1.9172,0.0010,401.76,0.40,-1.0,0.0,138.12,28.19,24.60,36.33,0.04,-272.73,-272.74,-51,561,-938,22.5,1.1,-35.6,22.6,1.1,-35.2,5.73,2.33,-33.6,27.3
2012-03-12 01:57:00,0.0,1.9176,0.0009,401.72,0.46,-1.0,0.0,138.12,28.20,24.60,36.33,0.04,-272.74,-272.73,-51,562,-937,22.5,1.1,-35.6,22.6,1.1,-35.1,5.73,2.34,-33.5,27.3
2012-03-12 01:58:00,0.0,1.9170,0.0008,401.74,0.42,-1.0,0.0,138.12,28.21,24.61,36.33,0.04,-272.73,-272.73,-51,562,-937,22.6,1.1,-35.4,22.6,1.1,-35.0,5.73,2.47,-33.4,27.4
2012-03-12 01:59:00,0.0,1.9171,0.0010,401.79,0.45,-1.0,0.0,138.12,28.22,24.60,36.33,0.04,-272.73,-272.74,-51,562,-937,22.6,1.1,-35.2,22.6,1.1,-35.1,5.73,2.45,-33.4,27.4
2012-03-12 02:00:00,0.0,1.9174,0.0009,401.80,0.37,-1.0,0.0,138.12,28.23,24.60,36.33,0.04,-272.73,-272.73,-51,562,-938,22.6,1.1,-35.5,22.7,1.1,-35.0,5.73,2.32,-33.3,27.5
2012-03-12 02:01:00,0.0,1.9173,0.0010,401.66,0.36,-1.0,0.0,138.12,28.24,24.61,36.33,0.04,-272.73,-272.73,-51,562,-938,22.6,1.1,-35.6,22.7,1.1,-35.0,5.73,2.33,-33.3,27.5
2012-03-12 02:02:00,0.0,1.9174,0.0010,401.69,0.35,-1.0,0.0,138.11,28.25,24.60,36.33,0.04,-272.74,-272.74,-51,562,-938,22.7,1.1,-35.5,22.7,1.1,-35.0,5.73,2.47,-33.2,27.6
2012-03-12 02:03:00,0.0,1.9172,0.0009,401.71,0.37,-1.0,0.0,138.11,28.26,24.61,36.33,0.04,-272.74,-272.73,-52,563,-939,22.7,1.1,-35.2,22.7,1.1,-34.9,5.73,2.46,-33.2,27.6
2012-03-12 02:04:00,0.0,1.9175,0.0009,401.72,0.39,-0.9,0.5,138.11,28.28,24.60,36.33,0.04,-272.73,-272.73,-51,562,-938,22.7,1.1,-35.0,22.7,1.2,-34.5,5.73,2.33,-33.1,27.7
2012-03-12 02:05:00,0.0,1.9173,0.0010,401.73,0.39,-1.0,0.0,138.11,28.29,24.61,36.33,0.04,-272.73,-272.74,-51,562,-938,22.7,1.1,-35.4,22.8,1.1,-35.0,5.73,2.32,-33.1,27.7
2012-03-12 02:06:00,0.0,1.9174,0.0010,401.76,0.46,-1.0,0.0,138.11,28.30,24.60,36.34,0.04,-272.73,-272.73,-51,562,-937,22.7,1.1,-35.5,22.8,1.1,-34.9,5.73,2.46,-33.0,27.8
2012-03-12 02:07:00,0.0,1.9177,0.0011,401.83,0.45,-1.0,0.0,138.11,28.31,24.60,36.33,0.04,-272.73,-272.73,-50,562,-938,22.7,1.0,-35.8,22.8,1.1,-35.1,5.73,2.48,-33.0,27.9
2012-03-12 02:08:00,0.0,1.9175,0.0010,401.67,0.37,-1.0,0.0,138.11,28.32,24.61,36.34,0.04,-272.73,-272.73,-50,562,-939,22.8,1.0,-35.7,22.9,1.1,-35.2,5.73,2.34,-32.9,27.9
2012-03-12 02:09:00,0.0,1.9175,0.0011,401.77,0.44,-1.0,0.0,138.11,28.34,24.61,36.34,0.04,-272.73,-272.73,-51,563,-938,22.8,1.0,-35.7,22.9,1.1,-35.4,5.73,2.32,-32.9,28.0
2012-03-12 02:10:00,0.0,1.9176,0.0010,401.73,0.40,-1.0,0.0,138.11,28.35,24.61,36.34,0.04,-272.74,-272.73,-51,563,-938,22.9,1.0,-35.8,22.9,1.1,-35.4,5.73,2.46,-32.8,28.1
2012-03-12 02:11:00,0.0,1.9178,0.0009,401.69,0.38,-1.0,0.0,138.11,28.36,24.60,36.34,0.04,-272.73,-272.73,-51,563,-938,22.9,1.0,-36.0,22.9,1.1,-35.4,5.73,2.47,-32.8,27.7
2012-03-12 02:12:00,0.0,1.9178,0.0009,401.63,0.38,-1.0,0.0,138.11,28.37,24.60,36.34,0.04,-272.73,-272.73,-51,563,-938,22.9,1.0,-35.9,22.9,1.1,-35.4,5.73,2.41,-32.9,27.0
2012-03-12 02:13:00,0.0,1.9171,0.0009,401.76,0.34,-1.0,0.0,138.12,28.37,24.61,36.34,0.04,-272.73,-272.73,-51,564,-939,22.9,1.0,-35.9,22.9,1.1,-35.5,5.73,2.35,-33.1,26.7
2012-03-12 02:14:00,0.0,1.9170,0.0009,401.79,0.39,-1.0,0.0,138.12,28.37,24.61,36.34,0.04,-272.73,-272.73,-51,564,-938,22.8,1.0,-36.0,22.8,1.1,-35.5,5.73,2.31,-33.3,26.4
2012-03-12 02:15:00,0.0,1.9169,0.0010,401.93,0.39,-1.0,0.0,138.13,28.35,24.61,36.33,0.04,-272.73,-272.73,-51,564,-938,22.7,1.0,-36.1,22.8,1.1,-35.5,5.73,2.39,-33.4,26.1
2012-03-12 02:16:00,0.0,1.9169,0.0010,401.77,0.41,-1.0,0.0,138.14,28.34,24.61,36.34,0.04,-272.73,-272.73,-52,563,-938,22.7,1.0,-36.0,22.7,1.0,-35.8,5.73,2.52,-33.6,25.8
2012-03-12 02:17:00,0.0,1.9167,0.0009,401.71,0.38,-1.0,0.0,138.14,28.32,24.61,36.33,0.04,-272.73,-272.73,-51,563,-938,22.6,1.0,-36.2,22.6,1.0,-35.7,5.73,2.49,-33.7,25.5
2012-03-12 02:18:00,0.0,1.9163,0.0010,401.60,0.40,-1.0,0.0,138.15,28.29,24.61,36.33,0.04,-272.73,-272.74,-51,563,-938,22.6,1.0,-36.1,22.5,1.1,-35.8,5.73,2.37,-33.9,25.5